Torna al catalogo

STARLINK-31591

AttivoComunicazioniVLEO
NORAD 59207·PAYLOAD·🇺🇸 United States

Lanciato Mar 11, 2024 da Vandenberg Space Force Base

Loading…

Prossimi Passaggi (prossime 24 ore)

TLE

AggiornatoSource: CelesTrak SupGP

Epoca: Sep 15, 2026, 02:04 UTC

1 59207C 24046G   26258.08659722  .00063138  00000+0  18654-2 0  2585
2 59207  53.1602 351.2805 0001087  81.4402  81.7131 15.34360327    17

Traccia STARLINK-31591 in tempo reale con AllMySat

Download on the App Store